[Iaude] MPEC V179: 2023 VC6 [a=2.41,e=0.46,i=8.5,H=21.0]
    mpec at marsden.cfa.harvard.edu 
    mpec at marsden.cfa.harvard.edu
       
    Fri Nov 10 16:03:41 EST 2023
    
    
  
M.P.E.C. 2023-V179                            Issued 2023 November 10, 21:02 UT
     The Minor Planet Electronic Circulars contain information on unusual
         minor planets, routine data on comets and natural satellites,
         and occasional editorial announcements.  They are published
    on behalf of Division F of the International Astronomical Union by the
          Minor Planet Center, Smithsonian Astrophysical Observatory,
                          Cambridge, MA 02138, U.S.A.
			  
             Prepared using the Tamkin Foundation Computer Network
                              MPC at CFA.HARVARD.EDU
            URL https://www.minorplanetcenter.net/    ISSN 1523-6714
                                    2023 VC6                                    
Observations:
     K23V06C  C2023 10 18.53949004 36 44.749+05 58 01.71         21.57GVEV179F51
     K23V06C  C2023 10 18.55157604 36 44.558+05 57 52.72         21.53GVEV179F51
     K23V06C  C2023 10 18.56366304 36 44.369+05 57 43.99         21.66GVEV179F51
     K23V06C  C2023 10 18.57629004 36 44.178+05 57 34.70         21.62GVEV179F51
     K23V06C  C2023 10 23.51186504 35 16.083+04 59 13.36         22.19GVEV179F51
     K23V06C  C2023 10 23.52260704 35 15.732+04 59 06.11         21.92GVEV179F51
     K23V06C  C2023 10 23.53343904 35 15.407+04 58 58.47         21.26GVEV179F51
     K23V06C* C2023 11 04.47760804 27 00.503+02 59 10.92         21.72wXEV179F51
     K23V06C  C2023 11 04.49913304 26 59.214+02 58 59.97         21.99wXEV179F51
     K23V06C  C2023 11 04.50994604 26 58.549+02 58 54.55         21.68wXEV179F51
     K23V06C KC2023 11 05.27734004 26 16.393+02 52 32.99         21.75GVEV179I52
     K23V06C KC2023 11 05.28310504 26 16.055+02 52 30.14         21.71GVEV179I52
     K23V06C KC2023 11 05.28888204 26 15.670+02 52 26.87         21.94GVEV179I52
     K23V06C KC2023 11 05.29435704 26 15.356+02 52 25.43         20.71GVEV179I52
     K23V06C KC2023 11 05.31585204 26 13.73 +02 52 13.1          22.0 GVEV179H21
     K23V06C KC2023 11 05.32163004 26 13.41 +02 52 10.4          22.0 GVEV179H21
     K23V06C KC2023 11 05.32740604 26 13.05 +02 52 07.3          21.9 GVEV179H21
     K23V06C KC2023 11 09.40831 04 22 10.36 +02 22 00.7          22.1 RVEV179691
     K23V06C KC2023 11 09.42001 04 22 09.59 +02 21 55.6          21.8 RVEV179691
     K23V06C KC2023 11 09.43170 04 22 08.84 +02 21 50.6          21.8 RVEV179691
Observer details:
691 Steward Observatory, Kitt Peak-Spacewatch.  Observer T. H. Bressi.  0.9-m
    f/3 reflector + CCD.
F51 Pan-STARRS 1, Haleakala.  Observers J. Bulger, T. Lowe, P. Minguez, A.
    Schultz, I. Smith.  Measurers K. Chambers, T. de Boer, J. Fairlamb, H.
    Gao, M. Huber, C.-C. Lin, E. Magnier, Y. Ramanjooloo, R. Wainscoat, R.
    Weryk.  1.8-m Ritchey-Chretien + CCD.
H21 Astronomical Research Observatory, Westfield.  Observer R. Holmes.
    Measurers T. Linder, R. Holmes, L. Horn.  1.3-m f/4.0 astrograph + CCD.
I52 Steward Observatory, Mt. Lemmon Station.  Observer R. A. Kowalski.
    Measurers E. C. Beshore, D. Fay, J. B. Fazekas, D. C. Fuls, A. R. Gibbs,
    A. D. Grauer, H. Groeller, J. K. Hogan, R. A. Kowalski, S. M. Larson, G.
    J. Leonard, D. Rankin, R. L. Seaman, F. C. Shelly, K. W. Wierzchos.  1.0-m
    prime focus + CCD.
Orbital elements:
2023 VC6                                                 Earth MOID = 0.2880 AU
Epoch 2023 Sept. 13.0 TT = JDT 2460200.5                Bell                    
M  10.10222              (2000.0)            P               Q                  
n   0.26378759     Peri.  175.57940     +0.97363537     +0.22697768             
a   2.4078706      Node   171.20202     -0.21357387     +0.94202232             
e   0.4622062      Incl.    8.53513     -0.08012723     +0.24713374             
P   3.74           H   21.01          G   0.15           U   6                  
Residuals in seconds of arc
231018 F51  0.0   0.1+    231104 F51  0.2-  0.0     231105 H21  0.2-  0.1+
231018 F51  0.0   0.1-    231104 F51  0.0   0.1-    231105 H21  0.2+  0.2+
231018 F51  0.1-  0.0     231104 F51  0.2-  0.1-    231105 H21  0.1+  0.1-
231018 F51  0.0   0.0     231105 I52  0.1+  0.0     231109 691  0.3-  0.3+
231023 F51  0.1+  0.0     231105 I52  0.3+  0.1-    231109 691  0.2-  0.2-
231023 F51  0.1-  0.1+    231105 I52  0.3-  0.6-    231109 691  0.2+  0.5-
231023 F51  0.1+  0.1-    231105 I52  0.0   0.6+
Ephemeris:
2023 VC6                 a,e,i = 2.41, 0.46, 9                   q = 1.2949
Date    TT    R. A. (2000) Decl.     Delta      r    Elong.  Phase     V
2023 10 11    04 36 20.0 +07 32 19   0.6164  1.4560   127.1    33.2    22.2
...
2023 10 26    04 34 03.2 +04 31 29   0.6193  1.5262   141.0    24.2    22.0
...
2023 11 03    04 28 19.5 +03 11 58   0.6316  1.5665   148.7    19.2    22.0
...
2023 11 09    04 22 35.9 +02 24 52   0.6472  1.5979   154.0    15.8    21.9
2023 11 10    04 21 33.7 +02 18 15   0.6504  1.6032   154.8    15.2    21.9
2023 11 11    04 20 30.4 +02 12 00   0.6538  1.6085   155.6    14.7    21.9
...
2023 11 17    04 13 57.2 +01 42 39   0.6780  1.6409   159.4    12.3    22.0
...
2023 11 25    04 05 17.0 +01 25 57   0.7211  1.6850   160.8    11.1    22.1
...
2023 12 10    03 52 21.1 +01 58 01   0.8358  1.7697   152.7    14.8    22.7
M. P. C. Staff               (C) Copyright 2023 MPC           M.P.E.C. 2023-V179
    
    
More information about the Iaude
mailing list